Sauk Centre, MN

4:55 AM CST on December 13, 2019 (GMT -0600)
Sauk Centre

Weather History for KD39 - October, 2019

Change the Weather History Date:

Monday, October 21, 2019

  Actual Average (WUND) Record (WUND)
Temperature  
Mean Temperature 46 °F -  
Max Temperature 54 °F - - (-1)
Min Temperature 39 °F - - (-1)
Degree Days  
Heating Degree Days 18    
Moisture  
Dew Point 40 °F    
Average Humidity 84    
Maximum Humidity 95    
Minimum Humidity 52    
Precipitation  
Precipitation 0.63 in - - ()
Sea Level Pressure  
Sea Level Pressure 29.40 in    
Wind  
Wind Speed 14 mph ()    
Max Wind Speed 32 mph    
Max Gust Speed 43 mph    
Visibility 7.9 miles    
Events Rain    
Averages and records for this station are not official NWS values.
T = Trace of Precipitation, MM = Missing Value Source: Averaged Metar Reports

Daily Weather History Graph

Daily Weather History Graph

Search for Another Location

Airport or City:

Astronomy

Oct. 21, 2019 Rise Set
Actual Time 7:44 AM CDT 6:23 PM CDT
Civil Twilight 7:13 AM CDT 6:54 PM CDT
Nautical Twilight 6:39 AM CDT 7:28 PM CDT
Astronomical Twilight 6:04 AM CDT 8:03 PM CDT
Moon No Moon Rise 3:13 PM CDT (10/21)
Length of Visible Light 11h 40m
Length of Day
10h 39m
Waning Gibbous, 48% of the Moon is Illuminated
Oct 21
Waning Gibbous
Oct 27
New
Nov 4
First Quarter
Nov 12
Full
Nov 19
Last Quarter

Hourly Weather History & Observations

Time (CDT) Temp. Windchill Dew Point Humidity Pressure Visibility Wind Dir Wind Speed Gust Speed Precip Events Conditions
12:15 AM 52.9 °F - 40.3 °F 62% 29.72 in 10.0 mi ESE 5.8 mph - N/A   Overcast
12:16 AM 52.9 °F - 40.5 °F 63% 29.73 in 10.0 mi ESE 6.9 mph - N/A   Overcast
12:35 AM 52.2 °F - 40.5 °F 64% 29.73 in 10.0 mi ESE 6.9 mph - N/A   Overcast
12:58 AM 54.5 °F - 37.4 °F 52% 29.70 in 10.0 mi ESE 13.8 mph 20.7 mph N/A   Overcast
1:16 AM 54.1 °F - 38.3 °F 55% 29.69 in 10.0 mi ESE 11.5 mph - N/A   Overcast
1:35 AM 53.6 °F - 38.8 °F 57% 29.66 in 10.0 mi East 8.1 mph - N/A   Overcast
1:36 AM 53.6 °F - 39.0 °F 58% 29.66 in 10.0 mi East 9.2 mph - N/A   Overcast
1:55 AM 52.2 °F - 40.1 °F 64% 29.65 in 10.0 mi ENE 9.2 mph - N/A   Overcast
1:56 AM 52.3 °F - 39.9 °F 63% 29.65 in 10.0 mi East 9.2 mph - N/A   Overcast
2:18 AM 52.0 °F - 40.5 °F 65% 29.64 in 10.0 mi ENE 10.4 mph - N/A   Overcast
2:36 AM 51.6 °F - 40.6 °F 66% 29.63 in 10.0 mi East 10.4 mph - N/A   Overcast
2:56 AM 50.9 °F - 41.0 °F 69% 29.63 in 10.0 mi East 9.2 mph - N/A   Overcast
3:15 AM 50.2 °F - 41.0 °F 71% 29.62 in 10.0 mi East 9.2 mph - N/A   Overcast
3:16 AM 50.0 °F - 41.0 °F 71% 29.62 in 10.0 mi East 8.1 mph - N/A   Overcast
3:35 AM 50.0 °F - 40.6 °F 70% 29.61 in 10.0 mi ENE 10.4 mph - N/A   Overcast
3:39 AM 49.6 °F - 40.6 °F 71% 29.60 in 10.0 mi ENE 10.4 mph - N/A   Overcast
3:57 AM 50.0 °F - 40.3 °F 69% 29.59 in 10.0 mi ENE 11.5 mph 18.4 mph N/A   Overcast
4:16 AM 50.2 °F - 40.1 °F 68% 29.58 in 10.0 mi ENE 12.7 mph 19.6 mph N/A   Overcast
4:35 AM 50.4 °F - 40.1 °F 68% 29.57 in 10.0 mi ENE 11.5 mph - N/A   Overcast
4:55 AM 50.5 °F - 40.5 °F 68% 29.57 in 10.0 mi East 10.4 mph - N/A   Overcast
4:59 AM 50.5 °F - 40.6 °F 69% 29.57 in 10.0 mi East 13.8 mph 19.6 mph N/A   Overcast
5:17 AM 50.9 °F - 40.8 °F 68% 29.57 in 10.0 mi East 12.7 mph 18.4 mph N/A   Overcast
5:35 AM 50.4 °F - 41.0 °F 70% 29.55 in 10.0 mi ENE 9.2 mph - N/A   Overcast
5:55 AM 49.6 °F - 41.7 °F 74% 29.55 in 10.0 mi NE 12.7 mph - N/A   Light Drizzle
5:56 AM 49.6 °F - 41.7 °F 74% 29.55 in 10.0 mi NE 10.4 mph - N/A   Light Drizzle
6:15 AM 50.0 °F - 40.8 °F 71% 29.54 in 10.0 mi ENE 8.1 mph 16.1 mph N/A Rain Light Rain
6:39 AM 49.1 °F - 40.8 °F 73% 29.53 in 10.0 mi ENE 10.4 mph 25.3 mph N/A Rain Light Rain
6:56 AM 47.8 °F - 41.9 °F 80% 29.52 in 10.0 mi ENE 10.4 mph - N/A Rain Light Rain
7:15 AM 47.3 °F - 42.1 °F 82% 29.51 in 7.0 mi ENE 9.2 mph - 0.02 in Rain Rain
7:16 AM 47.3 °F - 42.1 °F 82% 29.51 in 7.0 mi ENE 9.2 mph - 0.03 in Rain Rain
7:35 AM 46.4 °F 43.5 °F 42.1 °F 85% 29.50 in 10.0 mi NE 5.8 mph - 0.05 in Rain Rain
7:36 AM 46.4 °F 43.5 °F 42.1 °F 85% 29.50 in 10.0 mi NE 5.8 mph - 0.05 in Rain Rain
7:58 AM 46.2 °F 42.2 °F 41.9 °F 85% 29.50 in 7.0 mi ENE 8.1 mph - 0.08 in Rain Rain
8:16 AM 45.7 °F 42.0 °F 41.9 °F 87% 29.50 in 7.0 mi NE 6.9 mph - 0.04 in Rain Rain
8:35 AM 45.1 °F 39.9 °F 41.4 °F 87% 29.49 in 5.0 mi NE 10.4 mph - 0.08 in Rain Rain
8:36 AM 45.1 °F 40.3 °F 41.4 °F 87% 29.49 in 5.0 mi NE 9.2 mph - 0.08 in Rain Rain
8:55 AM 44.6 °F 39.7 °F 41.2 °F 88% 29.48 in 7.0 mi North 9.2 mph - 0.13 in Rain Rain
8:56 AM 44.6 °F 39.7 °F 41.2 °F 88% 29.48 in 7.0 mi NNE 9.2 mph - 0.13 in Rain Rain
9:15 AM 44.1 °F 38.1 °F 41.0 °F 89% 29.47 in 7.0 mi North 11.5 mph 16.1 mph 0.04 in Rain Rain
9:20 AM 44.2 °F 38.8 °F 40.8 °F 88% 29.46 in 7.0 mi NNE 10.4 mph 16.1 mph 0.05 in Rain Rain
9:37 AM 44.1 °F 38.6 °F 41.0 °F 89% 29.44 in 10.0 mi North 10.4 mph 16.1 mph 0.09 in Rain Rain
9:55 AM 44.1 °F 36.8 °F 41.0 °F 89% 29.43 in 10.0 mi NNE 16.1 mph 20.7 mph 0.10 in Rain Light Rain
10:15 AM 44.2 °F 37.3 °F 41.5 °F 90% 29.41 in 10.0 mi NNE 15.0 mph 21.9 mph 0.01 in Rain Rain
10:16 AM 44.1 °F 37.1 °F 41.4 °F 90% 29.41 in 10.0 mi NNE 15.0 mph 21.9 mph 0.01 in Rain Rain
10:35 AM 44.1 °F 35.9 °F 41.4 °F 90% 29.40 in 5.0 mi NNE 19.6 mph 25.3 mph 0.02 in Rain Rain
10:36 AM 44.1 °F 35.9 °F 41.4 °F 90% 29.39 in 5.0 mi NNE 19.6 mph 25.3 mph 0.02 in Rain Rain
10:59 AM 44.1 °F 35.9 °F 41.2 °F 90% 29.37 in 7.0 mi North 19.6 mph 26.5 mph 0.03 in Rain Rain
11:16 AM 43.9 °F 34.7 °F 41.0 °F 90% 29.35 in 5.0 mi North 24.2 mph 32.2 mph N/A Rain Light Rain
11:35 AM 43.7 °F 35.4 °F 41.0 °F 90% 29.35 in 7.0 mi NNE 19.6 mph 34.5 mph N/A Rain Light Rain
11:55 AM 43.7 °F 36.0 °F 41.0 °F 90% 29.33 in 7.0 mi North 17.3 mph 29.9 mph 0.01 in Rain Light Rain
11:56 AM 43.7 °F 35.4 °F 41.0 °F 90% 29.33 in 7.0 mi North 19.6 mph 29.9 mph 0.02 in Rain Rain
12:15 PM 43.7 °F 35.4 °F 41.2 °F 91% 29.32 in 10.0 mi North 19.6 mph 29.9 mph N/A Rain Light Rain
12:37 PM 43.7 °F 36.9 °F 41.0 °F 90% 29.30 in 10.0 mi North 13.8 mph 27.6 mph 0.01 in Rain Rain
12:56 PM 43.0 °F 33.5 °F 40.3 °F 90% 29.28 in 10.0 mi North 24.2 mph 32.2 mph 0.01 in Rain Light Rain
1:15 PM 42.4 °F 32.8 °F 40.1 °F 91% 29.26 in 7.0 mi North 24.2 mph 32.2 mph N/A Rain Light Rain
1:16 PM 42.4 °F 33.3 °F 40.1 °F 91% 29.26 in 7.0 mi North 21.9 mph 32.2 mph N/A Rain Light Rain
1:35 PM 42.3 °F 33.1 °F 40.1 °F 92% 29.24 in 10.0 mi North 21.9 mph 33.4 mph N/A Rain Light Rain
1:36 PM 42.3 °F 32.8 °F 40.1 °F 92% 29.24 in 10.0 mi North 23.0 mph 33.4 mph N/A Rain Light Rain
2:16 PM 42.1 °F 32.6 °F 40.3 °F 93% 29.22 in 5.0 mi North 23.0 mph 36.8 mph N/A Rain Light Rain
2:36 PM 42.1 °F 32.6 °F 40.1 °F 93% 29.20 in 5.0 mi North 23.0 mph 33.4 mph 0.01 in Rain Light Rain
2:55 PM 42.1 °F 32.3 °F 40.3 °F 93% 29.19 in 7.0 mi North 24.2 mph 27.6 mph 0.02 in Rain Light Rain
2:56 PM 42.1 °F 32.8 °F 40.3 °F 93% 29.19 in 7.0 mi North 21.9 mph 27.6 mph 0.02 in Rain Light Rain
3:15 PM 42.1 °F 32.8 °F 40.6 °F 95% 29.19 in 5.0 mi North 21.9 mph 29.9 mph N/A Rain Light Rain
3:37 PM 42.4 °F 33.1 °F 40.6 °F 93% 29.19 in 10.0 mi NNW 23.0 mph 34.5 mph N/A Rain Light Rain
3:55 PM 42.8 °F 32.9 °F 41.0 °F 93% 29.18 in 3.0 mi NNW 26.5 mph 34.5 mph 0.01 in Rain Light Rain
4:15 PM 43.0 °F 34.8 °F 41.5 °F 95% 29.19 in 5.0 mi North 18.4 mph 28.8 mph N/A Rain Rain
4:16 PM 43.2 °F 34.2 °F 41.5 °F 94% 29.19 in 4.0 mi North 21.9 mph 28.8 mph N/A Rain Rain
4:35 PM 43.7 °F 35.0 °F 41.9 °F 93% 29.19 in 7.0 mi NNW 21.9 mph 32.2 mph 0.01 in Rain Rain
4:36 PM 43.7 °F 35.2 °F 41.9 °F 93% 29.19 in 7.0 mi North 20.7 mph 32.2 mph 0.01 in Rain Rain
4:57 PM 43.7 °F 35.0 °F 41.9 °F 93% 29.19 in 3.0 mi NNW 21.9 mph 32.2 mph 0.04 in   Overcast
5:16 PM 43.3 °F 35.8 °F 41.7 °F 94% 29.19 in 5.0 mi North 16.1 mph 21.9 mph 0.02 in   Unknown
5:35 PM 43.5 °F 35.0 °F 41.2 °F 91% 29.19 in 7.0 mi NNW 20.7 mph 34.5 mph 0.02 in Rain Rain
5:36 PM 43.5 °F 34.5 °F 41.2 °F 91% 29.19 in 7.0 mi NNW 23.0 mph 34.5 mph 0.02 in Rain Rain
5:55 PM 43.0 °F 32.9 °F 41.2 °F 93% 29.19 in 3.0 mi NNW 27.6 mph 34.5 mph 0.03 in   Overcast
5:56 PM 43.0 °F 33.5 °F 41.2 °F 93% 29.20 in 3.0 mi NNW 24.2 mph 34.5 mph 0.04 in   Overcast
6:18 PM 42.8 °F 33.5 °F 41.0 °F 93% 29.21 in 4.0 mi North 23.0 mph 34.5 mph 0.02 in   Overcast
6:37 PM 42.3 °F 32.2 °F 40.1 °F 92% 29.22 in 5.0 mi North 26.5 mph 35.7 mph 0.04 in   Unknown
6:56 PM 41.5 °F 30.8 °F 39.2 °F 91% 29.23 in 5.0 mi North 28.8 mph 41.4 mph 0.06 in   Overcast
7:15 PM 41.0 °F 30.0 °F 38.8 °F 92% 29.24 in 5.0 mi North 28.8 mph 41.4 mph 0.02 in Rain Rain
7:16 PM 41.0 °F 30.7 °F 38.8 °F 92% 29.24 in 5.0 mi North 25.3 mph 41.4 mph 0.02 in Rain Rain
7:35 PM 39.7 °F 27.8 °F 37.6 °F 92% 29.25 in 5.0 mi North 32.2 mph 42.6 mph 0.03 in Rain Light Rain
7:39 PM 39.6 °F 28.1 °F 37.6 °F 93% 29.25 in 5.0 mi North 28.8 mph 42.6 mph 0.03 in Rain Light Rain
7:57 PM 39.6 °F 28.5 °F 37.8 °F 93% 29.26 in 7.0 mi North 26.5 mph 42.6 mph 0.04 in Rain Light Rain
8:16 PM 39.7 °F 29.2 °F 37.4 °F 91% 29.26 in 7.0 mi North 24.2 mph 42.6 mph N/A Rain Rain
8:35 PM 39.6 °F 28.1 °F 37.4 °F 92% 29.27 in 7.0 mi North 28.8 mph 41.4 mph 0.01 in Rain Rain
8:36 PM 39.6 °F 27.7 °F 37.4 °F 92% 29.27 in 7.0 mi North 31.1 mph 41.4 mph 0.01 in Rain Rain
8:55 PM 39.2 °F 27.6 °F 37.2 °F 93% 29.27 in 7.0 mi NNW 28.8 mph 40.3 mph 0.03 in Rain Rain
8:59 PM 39.2 °F 28.0 °F 37.0 °F 92% 29.28 in 7.0 mi NNW 26.5 mph 40.3 mph 0.03 in Rain Rain
9:17 PM 39.2 °F 28.0 °F 37.2 °F 93% 29.29 in 7.0 mi North 26.5 mph 35.7 mph N/A Rain Rain
9:36 PM 39.6 °F 29.0 °F 37.6 °F 93% 29.30 in 7.0 mi NNW 24.2 mph 39.1 mph 0.01 in Rain Rain
9:55 PM 40.3 °F 29.9 °F 38.3 °F 93% 29.30 in 10.0 mi NNW 24.2 mph 34.5 mph 0.01 in Rain Rain
9:56 PM 40.3 °F 29.9 °F 38.3 °F 93% 29.30 in 7.0 mi NNW 24.2 mph 34.5 mph 0.01 in Rain Rain
10:15 PM 41.0 °F 31.1 °F 39.2 °F 93% 29.31 in 7.0 mi NNW 23.0 mph 32.2 mph N/A Rain Rain
10:37 PM 41.4 °F 32.7 °F 39.6 °F 93% 29.32 in 10.0 mi NNW 18.4 mph 28.8 mph N/A Rain Light Rain
10:56 PM 41.9 °F 32.3 °F 39.7 °F 92% 29.32 in 10.0 mi NNW 23.0 mph 32.2 mph 0.01 in Rain Light Rain
11:15 PM 42.4 °F 33.1 °F 39.6 °F 90% 29.32 in 10.0 mi NNW 23.0 mph 34.5 mph N/A Rain Light Rain
11:16 PM 42.3 °F 32.4 °F 39.6 °F 90% 29.33 in 10.0 mi NNW 25.3 mph 34.5 mph N/A Rain Light Rain
11:35 PM 42.6 °F 32.8 °F 39.2 °F 88% 29.33 in 10.0 mi NNW 25.3 mph 34.5 mph N/A   Drizzle
11:57 PM 42.8 °F 33.1 °F 39.6 °F 88% 29.33 in 10.0 mi NNW 25.3 mph 34.5 mph N/A   Light Drizzle